Location: Moy Burn
(57.3833°N, 4.0667°W)
Time: 08:33:49
(UTC+00:00)

ATLAS 3B R/B - Pass Details

Date: 08 August 2020
Orbit: 1016 x 1179 km, 63.8° (Epoch: 17 September)

Event Time Altitude Azimuth Distance (km) Brightness Sun altitude
Exits shadow 22:21:15 15° 131° (SE) 2,455 4.0 -12.7°
Maximum altitude 22:23:20 17° 109° (ESE) 2,318 4.1 -12.8°
Drops below altitude 10° 22:27:23 10° 71° (ENE) 2,829 4.8 -13.1°
Sets 22:30:58 0° 53° (NE) 3,805 5.7 -13.3°
